This demonstration page uses our WeatherBlox Daily Observations layout. Learn more.

Left ArrowRight Arrow

-33.86785, 151.20732

Hourly Observations for December 5, 2022

Temp ( °F °C ) Dew Point ( °F °C ) Humidity (%) Winds ( mph kmh ) Pressure ( in mb ) Visibility ( mi km ) Precip ( " mm )
12:00 am 00:00 Mostly Clear 68 20 61 16 78 78 N 16 26 29.91 1013 6 10 0.00 0.00
12:30 am 00:30 Mostly Clear 68 20 59 15 73 73 N 12 19 29.91 1013 6 10 0.00 0.00
1:00 am 01:00 Mostly Clear 66 19 59 15 78 78 N 14 22 29.88 1012 6 10 0.00 0.00
1:30 am 01:30 Mostly Clear 66 19 59 15 78 78 N 13 20 29.88 1012 6 10 0.00 0.00
2:00 am 02:00 Mostly Clear 66 19 59 15 78 78 N 9 15 29.85 1011 6 10 0.00 0.00
2:30 am 02:30 Mostly Clear 66 19 59 15 78 78 N 7 11 29.85 1011 6 10 0.00 0.00
3:00 am 03:00 Mostly Clear 64 18 59 15 83 83 WNW 7 11 29.82 1010 6 10 0.00 0.00
3:30 am 03:30 Mostly Clear 64 18 59 15 83 83 NNW 7 11 29.82 1010 6 10 0.00 0.00
4:00 am 04:00 Mostly Clear 64 18 59 15 83 83 N 9 15 29.79 1009 6 10 0.00 0.00
4:30 am 04:30 Mostly Clear 64 18 59 15 83 83 N 8 13 29.79 1009 6 10 0.00 0.00
5:00 am 05:00 Mostly Clear 64 18 59 15 83 83 NNW 8 13 29.79 1009 6 10 0.00 0.00
5:30 am 05:30 Mostly Clear 64 18 57 14 77 77 N 7 11 29.79 1009 6 10 0.00 0.00
6:30 am 06:30 Mostly Sunny 66 19 59 15 78 78 N 7 11 29.79 1009 6 10 0.00 0.00
7:00 am 07:00 Mostly Sunny 66 19 57 14 73 73 NW 8 13 29.79 1009 6 10 0.00 0.00
7:30 am 07:30 Mostly Sunny 68 20 57 14 68 68 N 7 11 29.79 1009 6 10 0.00 0.00
8:00 am 08:00 Mostly Sunny 72 22 57 14 60 60 N 8 13 29.79 1009 6 10 0.00 0.00
8:30 am 08:30 Mostly Sunny 72 22 57 14 60 60 N 8 13 29.79 1009 6 10 0.00 0.00
9:00 am 09:00 Mostly Sunny 73 23 57 14 57 57 N 8 13 29.79 1009 6 10 0.00 0.00
9:30 am 09:30 Mostly Sunny 77 25 57 14 50 50 N 8 13 29.76 1008 6 10 0.00 0.00
10:00 am 10:00 Mostly Sunny 77 25 59 15 54 54 N 10 17 29.76 1008 6 10 0.00 0.00
10:30 am 10:30 Mostly Sunny 77 25 59 15 54 54 NNE 10 17 29.73 1007 6 10 0.00 0.00
11:00 am 11:00 Mostly Sunny 79 26 59 15 51 51 NE 10 17 29.73 1007 6 10 0.00 0.00
11:30 am 11:30 Mostly Sunny 81 27 61 16 51 51 NNE 12 19 29.70 1006 6 10 0.00 0.00
12:00 pm 12:00 Mostly Sunny 81 27 61 16 51 51 NE 14 22 29.70 1006 6 10 0.00 0.00
12:30 pm 12:30 Mostly Sunny 81 27 59 15 48 48 NNE 16 26 29.67 1005 6 10 0.00 0.00
1:00 pm 13:00 Mostly Sunny 82 28 61 16 48 48 NE 18 30 29.67 1005 6 10 0.00 0.00
1:30 pm 13:30 Mostly Sunny 84 29 61 16 45 45 NNE 20 31 29.65 1004 6 10 0.00 0.00
2:00 pm 14:00 Mostly Sunny 84 29 61 16 45 45 NNE 21 33 29.65 1004 6 10 0.00 0.00
2:30 pm 14:30 Mostly Sunny 84 29 59 15 43 43 NE 22 35 29.62 1003 6 10 0.00 0.00
3:00 pm 15:00 Partly Cloudy 84 29 63 17 48 48 NNE 22 35 29.62 1003 6 10 0.00 0.00
3:30 pm 15:30 Mostly Cloudy 82 28 61 16 48 48 NNE 24 39 29.59 1002 6 10 0.00 0.00
4:00 pm 16:00 Partly Cloudy 81 27 61 16 51 51 NE 25 41 29.59 1002 6 10 0.00 0.00
4:25 pm 16:25 Mostly Cloudy with Nearby Thunderstorms 77 25 61 16 57 57 NNE 23 37 29.59 1002 6 10 0.00 0.00
4:30 pm 16:30 Partly Cloudy with Nearby Thunderstorms 77 25 61 16 57 57 NNE 22 35 29.59 1002 6 10 0.00 0.00
4:41 pm 16:41 Windy with Storms Likely 79 26 63 17 58 58 NNE 26 43 29.62 1003 6 10 0.00 0.00
5:00 pm 17:00 Partly Cloudy with Nearby Thunderstorms 82 28 59 15 45 45 NNE 21 33 29.56 1001 6 10 0.00 0.00
5:30 pm 17:30 Partly Cloudy 82 28 59 15 45 45 NNE 18 30 29.56 1001 6 10 0.00 0.00
6:30 pm 18:30 Mostly Cloudy 79 26 59 15 51 51 NNE 21 33 29.56 1001 6 10 0.00 0.00
7:00 pm 19:00 Windy with Storms Likely 75 24 61 16 61 61 S 25 41 29.62 1003 6 10 0.00 0.00
7:18 pm 19:18 Windy with Rain Showers and Scattered Storms 70 21 64 18 83 83 S 22 35 29.62 1003 6 10 0.00 0.00
7:30 pm 19:30 Mostly Cloudy with Light Showers 72 22 64 18 78 78 SSE 14 22 29.62 1003 6 10 0.00 0.00
8:00 pm 20:00 Mostly Cloudy with Showers 72 22 64 18 78 78 ESE 14 22 29.62 1003 6 10 0.00 0.00
8:38 pm 20:38 Mostly Cloudy with Thunderstorms 70 21 64 18 83 83 SSW 18 30 29.65 1004 6 10 0.00 0.00
8:48 pm 20:48 Mostly Cloudy with Thunderstorms 70 21 66 19 88 88 SW 20 31 29.70 1006 4 7 0.00 0.00
8:51 pm 20:51 Mostly Cloudy with Strong Thunderstorms 68 20 64 18 88 88 WSW 20 31 29.70 1006 2 2 0.00 0.00
9:00 pm 21:00 Mostly Cloudy with Strong Thunderstorms 68 20 64 18 88 88 ENE 7 11 29.65 1004 4 7 0.00 0.00
9:16 pm 21:16 Mostly Cloudy with Showers and Scattered Storms 68 20 66 19 94 94 SSE 9 15 29.68 1005 6 9 0.00 0.00
9:30 pm 21:30 Mostly Cloudy with Light Showers and Scattered Storms 68 20 66 19 94 94 SE 7 11 29.68 1005 5 8 0.00 0.00
10:00 pm 22:00 Mostly Cloudy with Showers and Scattered Storms 68 20 66 19 94 94 S 21 33 29.70 1006 3 5 0.00 0.00
10:20 pm 22:20 Windy with Rain Showers Likely 66 19 64 18 94 94 S 23 37 29.70 1006 6 9 0.00 0.00
10:30 pm 22:30 Mostly Cloudy with Showers Nearby 66 19 64 18 94 94 S 23 37 29.70 1006 5 8 0.00 0.00
11:00 pm 23:00 Mostly Cloudy with Light Showers 66 19 64 18 94 94 SSE 16 26 29.68 1005 6 9 0.00 0.00
11:30 pm 23:30 Mostly Cloudy with Showers Nearby 66 19 64 18 94 94 S 17 28 29.68 1005 6 10 0.00 0.00

Powered by AerisWeather